Regional Weather Roundup
Issued by NWS

Home | Current Version | Previous Version | Text Only | Print | Product List | Glossary On
Versions: 1 2 3 4 5 6 7 8 9 10 11 12 13 14 15 16 17 18 19 20 21 22 23 24 25 26 27 28 29 30 31 32 33 34 35 36 37 38 39 40 41 42 43 44 45 46 47 48 49 50
000
ASUS43 KBIS 241810
RWRND
NORTH DAKOTA REGIONAL WEATHER ROUNDUP
NATIONAL WEATHER SERVICE EASTERN NORTH DAKOTA/GRAND FORKS ND
100 PM CDT THU MAY 24 2018

  NOTE: "FAIR" INDICATES FEW OR NO CLOUDS BELOW 12,000 FEET WITH NO
  SIGNIFICANT WEATHER AND/OR OBSTRUCTIONS TO VISIBILITY.

NDZ001>003-009>011-017-241900-
...NORTHWEST NORTH DAKOTA...

CITY           SKY/WX    TMP DP  RH WIND       PRES   REMARKS
WILLISTON      PTSUNNY   74  60  61 W13       29.77S
6HR MIN TEMP:  57; 6HR MAX TEMP:  73;

MINOT          FAIR      83  52  34 S12       29.73S
MINOT AFB      FAIR      83  51  32 SW9G16    29.71S
6HR MIN TEMP:  60; 6HR MAX TEMP:  83;

$$

NDZ018>021-031>035-040>046-241900-
...SOUTHWEST NORTH DAKOTA...

CITY           SKY/WX    TMP DP  RH WIND       PRES   REMARKS
BISMARCK       FAIR      79  58  48 S9        29.78F
DICKINSON      FAIR      76  53  44 W21       29.81S
GARRISON         N/A     80  52  37 SW14      29.75S
HETTINGER      FAIR      75  53  46 W17G30    29.87R
$$

NDZ004>008-012>016-024-026-027-054-241900-
...NORTHEAST NORTH DAKOTA...

CITY           SKY/WX    TMP DP  RH WIND       PRES   REMARKS
GRAND FORKS    PTSUNNY   83  61  47 S13       29.77F
GRAND FORKS AF PTSUNNY   85  58  39 S12       29.78F
DEVILS LAKE    FAIR      80  59  48 SE8       29.77F
$$

NDZ022-023-025-028>030-036>039-047>053-241900-
...SOUTHEAST NORTH DAKOTA...

CITY           SKY/WX    TMP DP  RH WIND       PRES   REMARKS
JAMESTOWN      FAIR      82  58  43 S13G21    29.79F
FARGO          FAIR      78  64  61 S13       29.84F
WAHPETON       MOCLDY    82  57  42 S5        29.86S
$$




USA.gov is the U.S. government's official web portal to all federal, state and local government web resources and services.